Location: Fontevrault
(47.1823°N, 0.0493°E)
Time: 04:37:27
(UTC+00:00)

Meteor 1-21 Rocket - Pass Details

Date: 25 October 2021
Orbit: 834 x 907 km, 81.2° (Epoch: 07 December)

Event Time Altitude Azimuth Distance (km) Brightness Sun altitude
Rises 19:03:51 0° 332° (NNW) 3,523 7.9 -22.6°
Reaches altitude 10° 19:07:31 10° 309° (NW) 2,587 7.5 -23.2°
Maximum altitude 19:10:27 14° 279° (W) 2,295 7.4 -23.7°
Drops below altitude 10° 19:13:23 10° 249° (WSW) 2,588 7.5 -24.2°
Sets 19:17:05 0° 226° (SW) 3,524 7.9 -24.8°
